Zurück zum Katalog

STARLINK-34648

AktivKommunikationVLEO
NORAD 65091·PAYLOAD·🇺🇸 United States

Gestartet Aug 4, 2025 von Cape Canaveral Space Force Station

Loading…

Nächste Überflüge (nächste 24 Stunden)

TLE

AktuellSource: CelesTrak SupGP

Epoche: Sep 15, 2026, 04:00 UTC

1 65091C 25167P   26258.16715278 -.00061408  00000+0 -18144-2 0  2580
2 65091  53.1573 218.8863 0001362  90.8387  52.6359 15.34419051    14

Verfolge STARLINK-34648 in Echtzeit mit AllMySat

Download on the App Store